Station GTOT2 - 8771450 - Galveston Pier 21, TX Image indicating link to RSS feed of recent meteorological observations for station GTOT2


Conditions at GTOT2 as of
(9:48 pm CDT on 05/27/2023)
0248 GMT on 05/28/2023:
     

Click on the graph icon in the table below to see a time series plot of the last five days of that observation.

5-day plot - Wind Speed Wind Speed (WSPD): 0.0 kts
5-day plot - Wind Gust Wind Gust (GST): 6.0 kts
5-day plot - Atmospheric Pressure Atmospheric Pressure (PRES):29.96 in
5-day plot - Air Temperature Air Temperature (ATMP): 81.3 °F
5-day plot - Water Temperature Water Temperature (WTMP): 82.9 °F
5-day plot - Wind Speed at 10 Meters Wind Speed at 10 meters (WSPD10M): 1.9 kts
5-day plot - Wind Speed at 20 Meters Wind Speed at 20 meters (WSPD20M): 1.9 kts
5-day plot -  Wind Speed, Wind Gust and Atmospheric Pressure Combined plot of Wind Speed, Gust, and Air Pressure
NOS Water Level Observation Network Water Level
Previous observations
TIME
(CDT)
5-day plot - Wind Direction
WDIR
 
5-day plot - Wind Speed
WSPD
kts
5-day plot - Wind Gust
GST
kts
5-day plot - Wave Height
WVHT
ft
5-day plot - Dominant Wave Period
DPD
sec
5-day plot - Average Wave Period
APD
sec
5-day plot - Mean Wave Direction
MWD
 
5-day plot - Atmospheric Pressure
PRES
in
5-day plot - Pressure Tendency
PTDY
in
5-day plot - Air Temperature
ATMP
°F
5-day plot - Water Temperature
WTMP
°F
5-day plot - Dew Point
DEWP
°F
5-day plot - Salinity
SAL
psu
5-day plot - Visibility
VIS
nmi
5-day plot - Tide (above MLLW)
TIDE
ft
2023-05-27 09:42 pm S 1.9 4.1----29.96- 81.5 82.9----
2023-05-27 09:36 pm S 1.9 4.1----29.96- 81.3 82.9----
2023-05-27 09:30 pmSSE 1.9 6.0----29.96- 81.3 83.1----
2023-05-27 09:24 pm S 1.9 5.1----29.96- 81.3 83.1----
2023-05-27 09:18 pmSSE 1.9 5.1----29.96- 81.3 83.1----
2023-05-27 09:12 pm S 1.9 4.1----29.96- 81.3 83.1----
2023-05-27 09:06 pmSSE 2.9 5.1----29.96- 81.3 83.1----
2023-05-27 09:00 pmSSE 2.9 5.1----29.96-0.01 81.5 83.1----
2023-05-27 08:54 pm S 2.9 6.0----29.96- 81.5 83.1----
2023-05-27 08:48 pm S 4.1 6.0----29.96- 81.5 83.1----
2023-05-27 08:42 pmSSE 1.9 5.1----29.96- 81.5 83.1----
2023-05-27 08:36 pmSSE 4.1 7.0----29.95- 81.5 83.1----
2023-05-27 08:30 pmSSE 4.1 6.0----29.96- 81.5 83.1----
2023-05-27 08:24 pm S 2.9 5.1----29.96- 81.7 83.1----
2023-05-27 08:18 pmSSE 2.9 6.0----29.96-- 83.1----
2023-05-27 08:12 pmSSE 2.9 7.0----29.96-- 83.1----
2023-05-27 08:06 pmSSE 4.1 5.1----29.96-- 83.1----
2023-05-27 08:00 pmSSE 2.9 7.0----29.96-0.01 81.9 83.1----
2023-05-27 07:54 pmSSE 5.1 7.0----29.96- 82.0 83.1----
2023-05-27 07:48 pm SE 4.1 7.0----29.96- 82.2 83.1----
2023-05-27 07:42 pmSSE 4.1 7.0----29.96- 82.4 83.1----
2023-05-27 07:36 pmSSE 5.1 8.0----29.96- 82.4 83.1----
2023-05-27 07:30 pm S 4.1 7.0----29.96- 82.6 83.1----
2023-05-27 07:24 pm SE 5.1 7.0----29.96- 82.8 83.1----
2023-05-27 07:18 pmSSE 4.1 8.0----29.96- 83.1 83.1----
2023-05-27 07:12 pmESE 5.1 8.0----29.96- 82.8 83.1----
2023-05-27 07:06 pm SE 5.1 7.0----29.96- 82.9 83.1----
2023-05-27 07:00 pmSSE 5.1 11.1----29.96-0.01 82.9 83.1----
2023-05-27 06:54 pmESE 7.0 8.9----29.96- 82.9 83.1----
2023-05-27 06:48 pmSSE 4.1 7.0----29.96- 84.4 83.1----
2023-05-27 06:42 pmSSE 5.1 8.0----29.96- 84.0 83.1----
2023-05-27 06:36 pm SE 4.1 8.9----29.96- 83.5 83.1----
2023-05-27 06:30 pm SE 6.0 8.0----29.96- 82.8 83.1----
2023-05-27 06:24 pm SE 4.1 8.0----29.96- 84.0 83.1----
2023-05-27 06:18 pm SE 5.1 8.9----29.96- 83.3 83.1----
2023-05-27 06:12 pmESE 5.1 8.0----29.96- 82.9 82.9----
2023-05-27 06:06 pm SE 6.0 8.9----29.96- 82.8 82.9----
2023-05-27 06:00 pmSSE 5.1 8.9----29.96-0.03 83.8 82.9----
2023-05-27 05:54 pmSSE 2.9 8.0----29.96- 83.8 82.9----
2023-05-27 05:48 pm SE 6.0 9.9----29.96- 83.1 82.9----
2023-05-27 05:42 pm SE 6.0 8.9----29.96- 83.8 82.9----
2023-05-27 05:36 pm SE 4.1 8.0----29.96- 84.0 82.9----
2023-05-27 05:30 pmESE 6.0 8.0----29.96- 84.0 82.9----
2023-05-27 05:24 pm SE 5.1 8.0----29.96- 84.4 82.9----
2023-05-27 05:18 pmSSE 5.1 8.9----29.96- 84.6 82.9----
2023-05-27 05:12 pm SE 7.0 9.9----29.96- 83.5 82.9----
2023-05-27 05:06 pm SE 5.1 8.9----29.96- 84.2 82.9----
2023-05-27 05:00 pm SE 7.0 11.1----29.96-0.04 83.7 82.9----
2023-05-27 04:54 pmESE 6.0 9.9----29.96- 83.8 82.9----
2023-05-27 04:48 pmESE 6.0 8.0----29.97- 83.8 82.9----
2023-05-27 04:42 pmESE 6.0 8.0----29.97- 84.6 82.9----
2023-05-27 04:36 pm SE 4.1 9.9----29.97- 84.2 82.9----
2023-05-27 04:30 pmESE 5.1 9.9----29.97- 83.5 82.9----
2023-05-27 04:24 pm S 5.1 8.9----29.97- 84.4 82.9----
2023-05-27 04:18 pm SE 2.9 8.9----29.97- 84.7 82.9----
2023-05-27 04:12 pm SE 4.1 8.9----29.97- 84.6 82.9----
2023-05-27 04:06 pmESE 7.0 9.9----29.97- 83.7 82.9----
2023-05-27 04:00 pmESE 6.0 11.1----29.98-0.04 84.2 82.9----
2023-05-27 03:54 pmESE 7.0 9.9----29.98- 83.8 82.9----
2023-05-27 03:48 pmESE 4.1 8.9----29.98- 84.9 82.9----
2023-05-27 03:42 pmESE 8.0 9.9----29.98- 84.2 82.9----
2023-05-27 03:36 pmSSE 5.1 8.9----29.98- 85.1 82.9----
2023-05-27 03:30 pm S 1.9 8.9----29.98- 86.2 82.9----
2023-05-27 03:24 pmSSE 5.1 8.9----29.98- 85.3 82.9----
2023-05-27 03:18 pmSSE 2.9 9.9----29.98-- 82.9----
2023-05-27 03:12 pmESE 7.0 9.9----29.99-- 82.9----
2023-05-27 03:06 pmSSE 6.0 9.9----29.99-- 82.9----
2023-05-27 03:00 pmSSE 5.1 8.0----29.99-0.02 84.9 82.9----
2023-05-27 02:54 pm S 6.0 8.9----29.99- 84.7 82.9----
2023-05-27 02:48 pmSSE 5.1 8.9----29.99- 84.9 82.9----
2023-05-27 02:42 pm SE 2.9 7.0----29.99- 85.3 82.9----
2023-05-27 02:36 pm SE 5.1 8.9----30.00- 85.5 82.9----
2023-05-27 02:30 pm S 2.9 7.0----30.00- 85.8 82.9----
2023-05-27 02:24 pm SE 1.9 8.9----30.00- 85.3 82.9----
2023-05-27 02:18 pm SE 7.0 8.9----30.00- 83.7 82.9----
2023-05-27 02:12 pm SE 7.0 11.1----30.01- 83.8 82.9----
2023-05-27 02:06 pm SE 4.1 8.9----30.01- 84.7 82.9----
2023-05-27 02:00 pmSSE 6.0 8.0----30.01+0.00 84.4 82.9----
2023-05-27 01:54 pmSSE 5.1 9.9----30.01- 85.1 82.9----
2023-05-27 01:48 pmSSE 4.1 8.0----30.01- 85.5 82.9----
2023-05-27 01:42 pm SE 6.0 9.9----30.01- 84.9 82.9----
2023-05-27 01:36 pmESE 6.0 9.9----30.01- 84.6 82.9----
2023-05-27 01:30 pmESE 6.0 9.9----30.01- 84.4 82.9----
2023-05-27 01:24 pm SE 5.1 9.9----30.01- 84.0 82.9----
2023-05-27 01:18 pm E 5.1 8.0----30.01- 84.2 82.9----
2023-05-27 01:12 pm NE 5.1 7.0----30.01- 82.9 82.8----
2023-05-27 01:06 pm NE 4.1 7.0----30.01- 82.9 82.8----
2023-05-27 01:00 pm NE 4.1 6.0----30.01+0.00 82.9 82.8----
2023-05-27 12:54 pm NE 5.1 8.0----30.01- 82.6 82.8----
2023-05-27 12:48 pm NE 4.1 7.0----30.01- 82.8 82.8----
2023-05-27 12:42 pm NE 2.9 7.0----30.01- 82.8 82.8----
2023-05-27 12:36 pm NE 2.9 6.0----30.01- 82.6 82.8----
2023-05-27 12:30 pmENE 5.1 8.0----30.01- 82.2 82.8----
2023-05-27 12:24 pm E 4.1 7.0----30.01- 82.9 82.8----
2023-05-27 12:18 pm E 4.1 8.0----30.01- 83.3 82.8----
2023-05-27 12:12 pm NE 6.0 8.9----30.01- 81.7 82.8----
2023-05-27 12:06 pm NE 6.0 8.0----30.01- 81.3 82.8----
2023-05-27 12:00 pmNNE 5.1 7.0----30.01+0.00 80.6 82.8----
2023-05-27 11:54 am NE 5.1 7.0----30.01- 80.2 82.8----
2023-05-27 11:48 amNNE 5.1 7.0----30.01- 80.1 82.8----
2023-05-27 11:42 am NE 5.1 7.0----30.01- 80.2 82.8----
2023-05-27 11:36 am NE 5.1 8.0----30.01- 80.2 82.8----
2023-05-27 11:30 am NE 6.0 8.0----30.01- 80.2 82.8----
2023-05-27 11:24 amENE 2.9 7.0----30.01- 80.2 82.8----
2023-05-27 11:18 am NE 5.1 6.0----30.01- 79.9 82.8----
2023-05-27 11:12 am NE 5.1 7.0----30.01- 79.7 82.8----
2023-05-27 11:06 amNNE 4.1 7.0----30.01- 79.7 82.8----
2023-05-27 11:00 am NE 5.1 7.0----30.01+0.00 79.5 82.8----
2023-05-27 10:54 amENE 4.1 8.0----30.01- 79.9 82.8----
2023-05-27 10:48 amENE 4.1 7.0----30.01- 79.5 82.8----
2023-05-27 10:42 amNNE 5.1 7.0----30.01- 79.3 82.8----
2023-05-27 10:36 am E 2.9 7.0----30.01- 79.7 82.8----
2023-05-27 10:30 am NE 4.1 8.0----30.01- 79.2 82.8----
2023-05-27 10:24 amENE 4.1 6.0----30.01- 79.5 82.8----
2023-05-27 10:18 amENE 4.1 7.0----30.01- 79.2 82.8----
2023-05-27 10:12 am NE 5.1 6.0----30.01- 78.6 82.8----
2023-05-27 10:06 am NE 5.1 6.0----30.01- 78.6 82.8----
2023-05-27 10:00 amENE 2.9 7.0----30.01+0.02 78.6 82.8----
2023-05-27 09:54 am NE 4.1 6.0----30.01- 78.3 82.8----
2023-05-27 09:48 am NE 5.1 8.0----30.02- 78.3 82.8----
2023-05-27 09:42 am NE 5.1 7.0----30.02- 78.1 82.8----
2023-05-27 09:36 amENE 2.9 6.0----30.01- 78.4 82.8----
2023-05-27 09:30 am NE 5.1 7.0----30.01- 78.1 82.8----
2023-05-27 09:24 am NE 2.9 7.0----30.01- 78.4 82.8----
2023-05-27 09:18 amNNE 6.0 8.0----30.01- 78.1 82.8----
2023-05-27 09:12 am NE 6.0 8.0----30.02- 78.1 82.9----
2023-05-27 09:06 am NE 6.0 8.9----30.02- 77.9 82.9----
2023-05-27 09:00 amNNE 7.0 8.0----30.02+0.03 77.9 82.9----
2023-05-27 08:54 am NE 4.1 8.0----30.02- 78.3 82.9----
2023-05-27 08:48 am NE 6.0 8.0----30.02- 77.9 82.9----
2023-05-27 08:42 am NE 7.0 8.9----30.02- 77.7 82.9----
2023-05-27 08:36 am NE 6.0 8.0----30.01- 78.4 82.9----
2023-05-27 08:30 amNNE 5.1 7.0----30.01- 79.2 82.9----
2023-05-27 08:24 am N 4.1 5.1----30.01- 79.0 82.9----
2023-05-27 08:18 amNNE 4.1 5.1----30.01- 79.2 82.9----
2023-05-27 08:12 am N 2.9 5.1----30.01- 79.2 82.9----
2023-05-27 08:06 am N 1.9 4.1----30.01- 79.2 82.9----
2023-05-27 08:00 am N 1.9 4.1----30.01+0.03 78.8 82.9----
2023-05-27 07:54 am N 2.9 4.1----30.01- 78.4 82.9----
2023-05-27 07:48 am N 1.9 4.1----30.01- 78.4 82.9----
2023-05-27 07:42 amNNW 2.9 4.1----30.01- 78.1 82.9----
2023-05-27 07:36 amNNW 2.9 4.1----30.01- 77.9 82.9----
2023-05-27 07:30 am N 2.9 4.1----30.01- 77.7 82.9----
2023-05-27 07:24 am N 1.9 2.9----30.00- 77.4 82.9----
2023-05-27 07:18 amNNE 1.9 4.1----30.00- 77.5 82.9----
2023-05-27 07:12 am N 2.9 4.1----30.00- 76.6 82.9----
2023-05-27 07:06 am N 4.1 4.1----30.00- 76.5 82.9----
2023-05-27 07:00 am N 4.1 5.1----30.00+0.03 76.5 82.9----
2023-05-27 06:54 am N 4.1 5.1----30.00- 76.3 82.9----
2023-05-27 06:48 am N 2.9 4.1----30.00- 76.3 82.9----
2023-05-27 06:42 am N 2.9 4.1----30.00- 76.5 82.9----
2023-05-27 06:36 am N 2.9 4.1----30.00- 76.1 82.9----
2023-05-27 06:30 am N 2.9 4.1----30.00- 76.1 82.9----
2023-05-27 06:24 am N 2.9 2.9----29.99- 76.3 82.9----
2023-05-27 06:18 am N 1.9 2.9----29.99- 76.8 82.9----
2023-05-27 06:12 am N 1.9 2.9----29.99- 77.4 82.9----
2023-05-27 06:06 amNNW 2.9 2.9----29.99- 77.0 82.9----
2023-05-27 06:00 amNNW 2.9 2.9----29.99+0.02 77.0 82.9----
2023-05-27 05:54 amNNW 1.9 1.9----29.99- 77.5 82.9----
2023-05-27 05:48 amNNW 1.9 1.9----29.99- 77.5 82.9----
2023-05-27 05:42 am N 1.9 1.9----29.98- 77.5 82.9----
2023-05-27 05:36 am N 1.0 1.0----29.98- 77.5 82.9----
2023-05-27 05:30 am N 1.0 1.0----29.99- 77.4 82.9----
2023-05-27 05:24 am- 0.0 1.0----29.99- 77.5 82.9----
2023-05-27 05:18 amNNW 1.0 1.9----29.98- 77.5 82.9----
2023-05-27 05:12 amNNW 1.9 1.9----29.98- 77.4 82.9----
2023-05-27 05:06 amNNW 1.9 1.9----29.98- 77.5 82.9----
2023-05-27 05:00 am NW 1.9 1.9----29.98+0.01 77.5 82.9----
2023-05-27 04:54 amNNW 1.9 1.9----29.98- 77.5 82.9----
2023-05-27 04:48 amNNW 1.9 1.9----29.98- 77.7 82.9----
2023-05-27 04:42 am NW 1.9 2.9----29.98- 77.5 82.9----
2023-05-27 04:36 am NW 1.9 1.9----29.98- 77.9 82.9----
2023-05-27 04:30 am- 0.0 1.0----29.97- 78.1 82.9----
2023-05-27 04:24 am- 0.0 1.9----29.97- 78.4 82.9----
2023-05-27 04:18 am NW 1.9 1.9----29.97- 78.8 82.9----
2023-05-27 04:12 am W 1.0 1.9----29.97- 78.4 82.9----
2023-05-27 04:06 am- 0.0 1.9----29.97- 78.4 82.9----
2023-05-27 04:00 am- 0.0 1.9----29.97-0.01 78.4 82.9----
2023-05-27 03:54 am- 0.0 1.9----29.96- 78.6 82.9----
2023-05-27 03:48 am W 1.9 2.9----29.96- 78.6 82.9----
2023-05-27 03:42 amWSW 1.0 2.9----29.96- 78.6 82.9----
2023-05-27 03:36 amSSW 1.9 4.1----29.96- 78.6 82.9----
2023-05-27 03:30 am SW 1.0 2.9----29.96- 78.6 82.9----
2023-05-27 03:24 am SW 1.9 4.1----29.96- 78.6 82.9----
2023-05-27 03:18 am SW 1.9 5.1----29.97- 78.8 82.9----
2023-05-27 03:12 am SW 1.9 4.1----29.96- 78.8 82.9----
2023-05-27 03:06 am SW 1.9 2.9----29.96- 78.8 82.9----
2023-05-27 03:00 am SW 1.9 5.1----29.97-0.02 78.8 82.9----
2023-05-27 02:54 am SW 2.9 5.1----29.97- 79.0 82.9----
2023-05-27 02:48 am SW 2.9 5.1----29.97- 79.0 82.9----
2023-05-27 02:42 amSSW 2.9 5.1----29.97- 79.0 82.9----
2023-05-27 02:36 amSSW 2.9 4.1----29.96- 79.0 82.9----
2023-05-27 02:30 am SW 1.9 5.1----29.96- 79.0 82.9----
2023-05-27 02:24 amSSW 2.9 5.1----29.96- 79.0 82.9----
2023-05-27 02:18 amSSW 1.9 7.0----29.97- 79.2-----
2023-05-27 02:12 amSSW 4.1 5.1----29.97- 79.2-----
2023-05-27 02:06 amSSW 4.1 6.0----29.97- 79.2-----
2023-05-27 02:00 am S 2.9 5.1----29.97-0.01 79.2 82.9----
2023-05-27 01:54 amSSE 1.0 5.1----29.97- 79.2 82.8----
2023-05-27 01:48 am S 1.9 5.1----29.97- 79.2 82.8----
2023-05-27 01:42 am S 2.9 5.1----29.97- 79.2 82.8----
2023-05-27 01:36 am S 2.9 5.1----29.97- 79.2 82.8----
2023-05-27 01:30 am S 2.9 6.0----29.97-- 82.8----
2023-05-27 01:24 amSSE 1.9 5.1----29.97-- 82.8----
2023-05-27 01:18 am S 4.1 6.0----29.97- 79.3 82.8----
2023-05-27 01:12 am S 4.1 6.0----29.97- 79.5 82.8----
2023-05-27 01:06 am S 4.1 6.0----29.97- 79.7 82.8----
2023-05-27 01:00 am S 4.1 7.0----29.98+0.02 79.7 82.8----
2023-05-27 12:54 am S 2.9 7.0----29.98- 79.9 82.8----
2023-05-27 12:48 amSSE 4.1 7.0----29.98- 79.7 82.8----
2023-05-27 12:42 am S 2.9 6.0----29.98- 79.7 82.8----
2023-05-27 12:36 am S 5.1 7.0----29.98- 79.5 82.8----
2023-05-27 12:30 am S 2.9 7.0----29.98- 79.7 82.8----
2023-05-27 12:24 amSSE 4.1 6.0----29.98- 79.7 82.8----
2023-05-27 12:18 am S 4.1 7.0----29.98- 79.7 82.8----
2023-05-27 12:12 amSSE 4.1 6.0----29.98- 79.7 82.8----
2023-05-27 12:06 amSSE 4.1 7.0----29.98- 79.7 82.8----
2023-05-27 12:00 am SE 4.1 6.0----29.99+0.04 79.9 82.8----
2023-05-26 11:54 pmSSE 4.1 6.0----29.99- 79.9 82.8----
2023-05-26 11:48 pmSSE 2.9 6.0----29.98- 79.7 82.8----
2023-05-26 11:42 pm SE 2.9 5.1----29.98- 79.7 82.8----
2023-05-26 11:36 pm SE 4.1 7.0----29.98- 79.7 82.8----
2023-05-26 11:30 pmESE 5.1 8.0----29.98- 79.7 82.8----
2023-05-26 11:24 pmESE 4.1 7.0----29.98- 79.7 82.8----
2023-05-26 11:18 pm SE 4.1 7.0----29.98- 79.7-----
2023-05-26 11:12 pm SE 1.9 5.1----29.98- 79.7-----
2023-05-26 11:06 pm SE 5.1 7.0----29.98- 79.7-----
2023-05-26 11:00 pm SE 1.9 5.1----29.98+0.04 79.7 82.6----
2023-05-26 10:54 pm SE 1.9 4.1----29.98- 79.7 82.6----
2023-05-26 10:48 pm SE 2.9 5.1----29.98- 79.7 82.6----
2023-05-26 10:42 pm S 1.9 4.1----29.98- 79.9 82.6----
2023-05-26 10:36 pm S 2.9 5.1----29.97- 79.9 82.6----
2023-05-26 10:30 pmSSE 1.9 5.1----29.97- 80.1 82.6----
2023-05-26 10:24 pm S 1.9 5.1----29.97- 79.9 82.6----
2023-05-26 10:18 pmSSE 1.9 5.1----29.96- 79.9 82.6----
2023-05-26 10:12 pmSSE 1.9 4.1----29.96- 79.9 82.6----
2023-05-26 10:06 pm S 2.9 5.1----29.96- 80.1 82.6----
2023-05-26 10:00 pm S 4.1 7.0----29.96+0.02 80.1 82.6----
2023-05-26 09:54 pm S 1.9 4.1----29.96- 80.1 82.6----